Time,TemperatureF,DewpointF,PressureIn,WindDirection,WindDirectionDegrees,WindSpeedMPH,WindSpeedGustMPH,Humidity,HourlyPrecipIn,Conditions,Clouds,dailyrainin,SoftwareType,DateUTC
2013-03-02 00:00:00,53.7,54.0,31.14,South,170,1.2,1.2,100,0.00,NA,NA,-99.99,BCS,2013-03-02 08:00:00,
2013-03-02 00:05:00,53.4,53.0,31.14,South,173,0.0,1.5,100,0.00,NA,NA,-99.99,BCS,2013-03-02 08:05:00,
2013-03-02 00:10:00,53.5,54.0,31.14,South,174,0.9,1.2,100,0.00,NA,NA,-99.99,BCS,2013-03-02 08:10:00,
2013-03-02 00:15:00,53.5,53.0,31.14,South,174,0.0,1.2,100,0.00,NA,NA,-99.99,BCS,2013-03-02 08:15:00,
2013-03-02 00:20:00,53.5,54.0,31.14,South,174,0.0,0.3,100,0.00,NA,NA,-99.99,BCS,2013-03-02 08:20:00,
2013-03-02 00:25:00,53.6,54.0,31.14,South,175,0.0,0.3,100,0.00,NA,NA,-99.99,BCS,2013-03-02 08:25:00,
2013-03-02 00:35:00,53.6,54.0,31.14,South,175,0.0,0.3,100,0.00,NA,NA,-99.99,BCS,2013-03-02 08:35:00,
2013-03-02 00:40:00,53.6,54.0,31.14,South,175,0.0,0.0,100,0.00,NA,NA,-99.99,BCS,2013-03-02 08:40:00,
2013-03-02 00:50:00,53.5,54.0,31.14,South,176,1.2,1.2,100,0.00,NA,NA,-99.99,BCS,2013-03-02 08:50:00,
2013-03-02 00:55:00,53.7,54.0,31.14,SSW,201,0.0,2.1,100,0.00,NA,NA,-99.99,BCS,2013-03-02 08:55:00,
2013-03-02 01:00:00,54.0,54.0,31.14,SSW,198,0.9,1.5,100,0.00,NA,NA,-99.99,BCS,2013-03-02 09:00:00,
2013-03-02 01:05:00,54.2,54.0,31.14,SSW,197,0.0,2.1,100,0.00,NA,NA,-99.99,BCS,2013-03-02 09:05:00,
2013-03-02 01:10:00,54.3,54.0,31.13,SSW,197,0.0,0.6,100,0.00,NA,NA,-99.99,BCS,2013-03-02 09:10:00,
2013-03-02 01:15:00,54.4,54.0,31.13,SSW,197,0.0,0.0,100,0.00,NA,NA,-99.99,BCS,2013-03-02 09:15:00,
2013-03-02 01:20:00,54.4,54.0,31.14,SSW,202,0.0,1.8,100,0.00,NA,NA,-99.99,BCS,2013-03-02 09:20:00,
2013-03-02 01:25:00,54.9,55.0,31.13,South,178,0.6,2.1,100,0.00,NA,NA,-99.99,BCS,2013-03-02 09:25:00,
2013-03-02 01:30:00,54.8,55.0,31.13,South,178,0.0,2.1,100,0.00,NA,NA,-99.99,BCS,2013-03-02 09:30:00,
2013-03-02 01:40:00,54.7,55.0,31.13,South,179,0.0,0.0,100,0.00,NA,NA,-99.99,BCS,2013-03-02 09:40:00,
2013-03-02 01:45:00,54.9,55.0,31.13,South,178,1.2,1.5,100,0.00,NA,NA,-99.99,BCS,2013-03-02 09:45:00,
2013-03-02 01:50:00,55.1,55.0,31.13,South,178,0.9,1.5,100,0.00,NA,NA,-99.99,BCS,2013-03-02 09:50:00,
2013-03-02 01:55:00,55.0,55.0,31.13,South,177,1.2,1.2,100,0.00,NA,NA,-99.99,BCS,2013-03-02 09:55:00,
2013-03-02 02:00:00,55.0,55.0,31.12,SSE,162,1.2,2.4,100,0.00,NA,NA,-99.99,BCS,2013-03-02 10:00:00,
2013-03-02 02:10:00,54.9,55.0,31.12,SSE,168,0.0,1.2,100,0.00,NA,NA,-99.99,BCS,2013-03-02 10:10:00,
2013-03-02 02:15:00,54.6,55.0,31.12,SSE,168,0.0,0.0,100,0.00,NA,NA,-99.99,BCS,2013-03-02 10:15:00,
2013-03-02 02:20:00,54.2,54.0,31.12,South,171,1.2,1.5,100,0.00,NA,NA,-99.99,BCS,2013-03-02 10:20:00,
2013-03-02 02:30:00,54.0,54.0,31.11,South,172,0.6,1.5,100,0.00,NA,NA,-99.99,BCS,2013-03-02 10:30:00,
2013-03-02 02:40:00,54.2,54.0,31.11,South,173,0.6,1.2,100,0.00,NA,NA,-99.99,BCS,2013-03-02 10:40:00,
2013-03-02 02:45:00,54.2,54.0,31.11,South,173,0.3,1.5,100,0.00,NA,NA,-99.99,BCS,2013-03-02 10:45:00,
2013-03-02 02:55:00,54.2,54.0,31.10,SSE,160,1.2,2.4,100,0.00,NA,NA,-99.99,BCS,2013-03-02 10:55:00,
2013-03-02 03:00:00,54.3,54.0,31.10,SSE,161,0.9,2.4,100,0.00,NA,NA,-99.99,BCS,2013-03-02 11:00:00,
2013-03-02 03:05:00,54.2,54.0,31.10,South,183,1.5,2.1,100,0.00,NA,NA,-99.99,BCS,2013-03-02 11:05:00,
2013-03-02 03:10:00,54.2,54.0,31.09,SSW,196,1.2,1.8,100,0.00,NA,NA,-99.99,BCS,2013-03-02 11:10:00,
2013-03-02 03:20:00,55.3,55.0,31.09,South,170,1.5,3.6,100,0.00,NA,NA,-99.99,BCS,2013-03-02 11:20:00,
2013-03-02 03:30:00,55.1,55.0,31.09,SSE,159,0.0,1.2,100,0.00,NA,NA,-99.99,BCS,2013-03-02 11:30:00,
2013-03-02 03:40:00,55.0,55.0,31.08,SSE,159,0.0,1.8,100,0.00,NA,NA,-99.99,BCS,2013-03-02 11:40:00,
2013-03-02 03:45:00,54.9,55.0,31.09,SSE,159,0.0,0.0,100,0.00,NA,NA,-99.99,BCS,2013-03-02 11:45:00,
2013-03-02 03:50:00,54.7,55.0,31.08,SSE,159,0.0,0.0,100,0.00,NA,NA,-99.99,BCS,2013-03-02 11:50:00,
2013-03-02 03:55:00,54.7,55.0,31.09,SSE,159,0.0,0.0,100,0.00,NA,NA,-99.99,BCS,2013-03-02 11:55:00,
2013-03-02 04:00:00,54.6,55.0,31.08,SSE,159,0.0,0.0,100,0.00,NA,NA,-99.99,BCS,2013-03-02 12:00:00,
2013-03-02 04:05:00,54.4,54.0,31.09,SSE,159,0.0,0.0,100,0.00,NA,NA,-99.99,BCS,2013-03-02 12:05:00,
2013-03-02 04:15:00,54.0,54.0,31.09,South,182,0.0,0.6,100,0.00,NA,NA,-99.99,BCS,2013-03-02 12:15:00,
2013-03-02 04:20:00,53.9,54.0,31.09,South,182,0.0,0.0,100,0.00,NA,NA,-99.99,BCS,2013-03-02 12:20:00,
2013-03-02 04:25:00,53.7,54.0,31.09,South,183,0.0,0.6,100,0.00,NA,NA,-99.99,BCS,2013-03-02 12:25:00,
2013-03-02 04:35:00,53.6,54.0,31.08,South,183,0.0,0.0,100,0.00,NA,NA,-99.99,BCS,2013-03-02 12:35:00,
2013-03-02 04:40:00,53.6,54.0,31.08,South,183,0.0,0.6,100,0.00,NA,NA,-99.99,BCS,2013-03-02 12:40:00,
2013-03-02 04:45:00,53.6,54.0,31.08,South,183,0.0,0.3,100,0.00,NA,NA,-99.99,BCS,2013-03-02 12:45:00,
2013-03-02 04:50:00,53.6,54.0,31.08,South,183,0.0,0.0,100,0.00,NA,NA,-99.99,BCS,2013-03-02 12:50:00,
2013-03-02 05:00:00,53.5,54.0,31.08,South,183,0.0,0.0,100,0.00,NA,NA,-99.99,BCS,2013-03-02 13:00:00,
2013-03-02 05:05:00,53.5,54.0,31.08,South,183,0.0,0.0,100,0.00,NA,NA,-99.99,BCS,2013-03-02 13:05:00,
2013-03-02 05:10:00,53.4,53.0,31.08,South,183,0.0,0.0,100,0.00,NA,NA,-99.99,BCS,2013-03-02 13:10:00,
2013-03-02 05:15:00,53.4,53.0,31.08,South,184,0.0,0.9,100,0.00,NA,NA,-99.99,BCS,2013-03-02 13:15:00,
2013-03-02 05:20:00,53.3,53.0,31.09,South,184,0.0,0.9,100,0.00,NA,NA,-99.99,BCS,2013-03-02 13:20:00,
2013-03-02 05:25:00,53.3,53.0,31.09,South,184,0.0,0.0,100,0.00,NA,NA,-99.99,BCS,2013-03-02 13:25:00,
2013-03-02 05:30:00,53.3,53.0,31.09,South,184,0.0,0.0,100,0.00,NA,NA,-99.99,BCS,2013-03-02 13:30:00,
2013-03-02 05:35:00,53.4,53.0,31.09,South,184,0.0,0.0,100,0.00,NA,NA,-99.99,BCS,2013-03-02 13:35:00,
2013-03-02 05:40:00,53.3,53.0,31.09,South,184,0.0,0.0,100,0.00,NA,NA,-99.99,BCS,2013-03-02 13:40:00,
2013-03-02 05:45:00,53.2,53.0,31.08,South,184,0.0,0.0,100,0.00,NA,NA,-99.99,BCS,2013-03-02 13:45:00,
2013-03-02 05:50:00,53.2,53.0,31.09,South,184,0.0,0.0,100,0.00,NA,NA,-99.99,BCS,2013-03-02 13:50:00,
2013-03-02 05:55:00,53.1,53.0,31.09,South,184,0.0,0.0,100,0.00,NA,NA,-99.99,BCS,2013-03-02 13:55:00,
2013-03-02 06:00:00,53.2,53.0,31.08,South,184,0.0,0.0,100,0.00,NA,NA,-99.99,BCS,2013-03-02 14:00:00,
2013-03-02 06:10:00,53.1,53.0,31.08,South,184,0.0,0.0,100,0.00,NA,NA,-99.99,BCS,2013-03-02 14:10:00,
2013-03-02 06:15:00,52.9,53.0,31.08,South,185,1.2,1.5,100,0.00,NA,NA,-99.99,BCS,2013-03-02 14:15:00,
2013-03-02 06:20:00,53.0,53.0,31.08,South,191,0.0,1.5,100,0.00,NA,NA,-99.99,BCS,2013-03-02 14:20:00,
2013-03-02 06:25:00,53.0,53.0,31.08,West,273,0.0,1.8,100,0.00,NA,NA,-99.99,BCS,2013-03-02 14:25:00,
2013-03-02 06:30:00,53.1,53.0,31.08,West,275,0.0,0.0,100,0.00,NA,NA,-99.99,BCS,2013-03-02 14:30:00,
2013-03-02 06:40:00,53.7,54.0,31.08,WNW,289,0.0,0.0,100,0.00,NA,NA,-99.99,BCS,2013-03-02 14:40:00,
2013-03-02 06:45:00,53.4,53.0,31.08,WSW,252,0.3,1.2,100,0.00,NA,NA,-99.99,BCS,2013-03-02 14:45:00,
2013-03-02 06:50:00,53.0,53.0,31.08,WSW,252,0.0,1.2,100,0.00,NA,NA,-99.99,BCS,2013-03-02 14:50:00,
2013-03-02 06:55:00,52.8,53.0,31.09,WSW,252,0.9,1.5,100,0.00,NA,NA,-99.99,BCS,2013-03-02 14:55:00,
2013-03-02 07:00:00,52.7,53.0,31.08,WSW,249,0.0,1.2,100,0.00,NA,NA,-99.99,BCS,2013-03-02 15:00:00,
2013-03-02 07:05:00,52.7,53.0,31.09,WSW,244,0.0,0.3,100,0.00,NA,NA,-99.99,BCS,2013-03-02 15:05:00,
2013-03-02 07:15:00,52.8,53.0,31.09,WSW,244,0.0,0.0,100,0.00,NA,NA,-99.99,BCS,2013-03-02 15:15:00,
2013-03-02 07:20:00,52.8,53.0,31.09,WSW,244,0.0,0.9,100,0.00,NA,NA,-99.99,BCS,2013-03-02 15:20:00,
2013-03-02 07:30:00,52.9,53.0,31.09,WSW,244,0.0,0.0,100,0.00,NA,NA,-99.99,BCS,2013-03-02 15:30:00,
2013-03-02 07:35:00,53.0,53.0,31.09,WSW,244,0.0,0.0,100,0.00,NA,NA,-99.99,BCS,2013-03-02 15:35:00,
2013-03-02 07:40:00,53.2,53.0,31.10,WSW,245,0.0,0.9,100,0.00,NA,NA,-99.99,BCS,2013-03-02 15:40:00,
2013-03-02 07:45:00,53.4,53.0,31.09,WSW,244,0.0,0.9,100,0.00,NA,NA,-99.99,BCS,2013-03-02 15:45:00,
2013-03-02 07:50:00,53.6,54.0,31.10,WSW,244,0.0,0.0,100,0.00,NA,NA,-99.99,BCS,2013-03-02 15:50:00,
2013-03-02 07:55:00,53.9,54.0,31.10,WSW,244,0.0,0.0,100,0.00,NA,NA,-99.99,BCS,2013-03-02 15:55:00,
2013-03-02 08:00:00,54.1,54.0,31.10,WSW,244,0.0,0.0,100,0.00,NA,NA,-99.99,BCS,2013-03-02 16:00:00,
2013-03-02 08:10:00,54.3,54.0,31.10,WSW,246,0.0,0.0,100,0.00,NA,NA,-99.99,BCS,2013-03-02 16:10:00,
2013-03-02 08:15:00,54.7,55.0,31.10,WNW,288,0.6,1.5,100,0.00,NA,NA,-99.99,BCS,2013-03-02 16:15:00,
2013-03-02 08:20:00,55.0,55.0,31.10,WNW,289,0.0,1.2,100,0.00,NA,NA,-99.99,BCS,2013-03-02 16:20:00,
2013-03-02 08:25:00,55.4,55.0,31.10,WNW,289,0.0,0.9,100,0.00,NA,NA,-99.99,BCS,2013-03-02 16:25:00,
2013-03-02 08:30:00,55.9,56.0,31.10,WNW,290,0.0,0.9,100,0.00,NA,NA,-99.99,BCS,2013-03-02 16:30:00,
2013-03-02 08:40:00,56.6,57.0,31.10,NW,304,0.9,2.1,100,0.00,NA,NA,-99.99,BCS,2013-03-02 16:40:00,
2013-03-02 08:45:00,56.9,57.0,31.10,WNW,302,1.5,2.1,100,0.00,NA,NA,-99.99,BCS,2013-03-02 16:45:00,
2013-03-02 08:50:00,57.0,57.0,31.10,WNW,301,2.1,3.0,100,0.00,NA,NA,-99.99,BCS,2013-03-02 16:50:00,
2013-03-02 08:55:00,57.3,57.0,31.10,North,360,0.9,2.7,100,0.00,NA,NA,-99.99,BCS,2013-03-02 16:55:00,
2013-03-02 09:00:00,57.7,58.0,31.10,North,7,2.4,3.6,100,0.00,NA,NA,-99.99,BCS,2013-03-02 17:00:00,
2013-03-02 09:10:00,58.0,58.0,31.10,North,353,3.3,3.9,100,0.00,NA,NA,-99.99,BCS,2013-03-02 17:10:00,
2013-03-02 09:15:00,58.3,58.0,31.10,NW,314,1.5,4.5,100,0.00,NA,NA,-99.99,BCS,2013-03-02 17:15:00,
2013-03-02 09:20:00,58.5,59.0,31.10,NNE,21,2.1,4.2,100,0.00,NA,NA,-99.99,BCS,2013-03-02 17:20:00,
2013-03-02 09:25:00,59.0,59.0,31.10,NNE,14,1.5,3.3,100,0.00,NA,NA,-99.99,BCS,2013-03-02 17:25:00,
2013-03-02 09:35:00,59.7,60.0,31.10,NNE,18,0.9,3.3,99,0.00,NA,NA,-99.99,BCS,2013-03-02 17:35:00,
2013-03-02 09:40:00,60.1,59.0,31.09,West,269,0.0,4.5,98,0.00,NA,NA,-99.99,BCS,2013-03-02 17:40:00,
2013-03-02 09:45:00,60.3,59.0,31.09,NNW,328,1.2,3.6,97,0.00,NA,NA,-99.99,BCS,2013-03-02 17:45:00,
2013-03-02 09:50:00,60.5,59.0,31.09,NNW,343,3.0,4.5,95,0.00,NA,NA,-99.99,BCS,2013-03-02 17:50:00,
2013-03-02 10:00:00,61.5,59.0,31.09,NNW,348,1.2,3.0,93,0.00,NA,NA,-99.99,BCS,2013-03-02 18:00:00,
2013-03-02 10:05:00,61.7,59.0,31.09,North,6,3.0,3.9,91,0.00,NA,NA,-99.99,BCS,2013-03-02 18:05:00,
2013-03-02 10:10:00,62.1,59.0,31.09,NNE,17,1.2,3.9,91,0.00,NA,NA,-99.99,BCS,2013-03-02 18:10:00,
2013-03-02 10:15:00,62.6,59.0,31.09,NNW,336,0.6,5.4,89,0.00,NA,NA,-99.99,BCS,2013-03-02 18:15:00,
2013-03-02 10:20:00,63.2,59.0,31.09,NE,35,3.3,3.6,87,0.00,NA,NA,-99.99,BCS,2013-03-02 18:20:00,
2013-03-02 10:25:00,63.7,59.0,31.08,North,1,1.8,3.6,85,0.00,NA,NA,-99.99,BCS,2013-03-02 18:25:00,
2013-03-02 10:30:00,63.8,59.0,31.08,NNE,27,0.9,3.0,83,0.00,NA,NA,-99.99,BCS,2013-03-02 18:30:00,
2013-03-02 10:35:00,64.0,59.0,31.08,NW,307,2.7,2.7,83,0.00,NA,NA,-99.99,BCS,2013-03-02 18:35:00,
2013-03-02 10:40:00,64.2,58.0,31.08,NNE,29,0.6,3.6,82,0.00,NA,NA,-99.99,BCS,2013-03-02 18:40:00,
2013-03-02 10:45:00,64.6,59.0,31.08,ESE,107,1.5,2.7,80,0.00,NA,NA,-99.99,BCS,2013-03-02 18:45:00,
2013-03-02 10:50:00,64.9,58.0,31.08,NNW,337,2.1,3.3,79,0.00,NA,NA,-99.99,BCS,2013-03-02 18:50:00,
2013-03-02 10:55:00,64.9,58.0,31.08,NNE,24,0.9,3.6,79,0.00,NA,NA,-99.99,BCS,2013-03-02 18:55:00,
2013-03-02 11:00:00,65.4,58.0,31.07,NNE,31,1.5,3.3,79,0.00,NA,NA,-99.99,BCS,2013-03-02 19:00:00,
2013-03-02 11:05:00,65.4,59.0,31.08,NNW,345,2.7,4.2,78,0.00,NA,NA,-99.99,BCS,2013-03-02 19:05:00,
2013-03-02 11:10:00,65.3,58.0,31.07,North,349,2.4,3.6,78,0.00,NA,NA,-99.99,BCS,2013-03-02 19:10:00,
2013-03-02 11:15:00,66.0,59.0,31.07,NNE,21,1.8,3.6,77,0.00,NA,NA,-99.99,BCS,2013-03-02 19:15:00,
2013-03-02 11:20:00,66.4,58.0,31.07,West,275,0.0,4.5,76,0.00,NA,NA,-99.99,BCS,2013-03-02 19:20:00,
2013-03-02 11:25:00,67.1,58.0,31.07,ENE,71,0.9,2.4,74,0.00,NA,NA,-99.99,BCS,2013-03-02 19:25:00,
2013-03-02 11:35:00,67.4,59.0,31.07,NNE,17,2.1,4.5,72,0.00,NA,NA,-99.99,BCS,2013-03-02 19:35:00,
2013-03-02 11:40:00,67.1,57.0,31.07,NNW,348,3.0,4.5,71,0.00,NA,NA,-99.99,BCS,2013-03-02 19:40:00,
2013-03-02 11:45:00,67.7,59.0,31.07,NNE,31,1.2,3.9,72,0.00,NA,NA,-99.99,BCS,2013-03-02 19:45:00,
2013-03-02 11:50:00,67.5,56.0,31.06,NW,323,5.1,5.1,70,0.00,NA,NA,-99.99,BCS,2013-03-02 19:50:00,
2013-03-02 11:55:00,67.9,58.0,31.06,North,9,1.5,5.1,70,0.00,NA,NA,-99.99,BCS,2013-03-02 19:55:00,
2013-03-02 12:05:00,69.7,59.0,31.05,NNE,15,1.8,3.3,69,0.00,NA,NA,-99.99,BCS,2013-03-02 20:05:00,
2013-03-02 12:10:00,69.2,57.0,31.05,ENE,71,3.6,4.5,67,0.00,NA,NA,-99.99,BCS,2013-03-02 20:10:00,
2013-03-02 12:15:00,69.8,59.0,31.05,NNE,13,2.1,4.8,67,0.00,NA,NA,-99.99,BCS,2013-03-02 20:15:00,
2013-03-02 12:20:00,69.7,58.0,31.05,NNW,344,3.0,4.5,66,0.00,NA,NA,-99.99,BCS,2013-03-02 20:20:00,
2013-03-02 12:25:00,69.3,57.0,31.04,ENE,60,2.4,4.8,66,0.00,NA,NA,-99.99,BCS,2013-03-02 20:25:00,
2013-03-02 12:30:00,69.5,58.0,31.04,NW,325,0.9,3.6,67,0.00,NA,NA,-99.99,BCS,2013-03-02 20:30:00,
2013-03-02 12:40:00,69.2,57.0,31.04,NNE,26,0.9,4.2,67,0.00,NA,NA,-99.99,BCS,2013-03-02 20:40:00,
2013-03-02 12:45:00,69.5,58.0,31.04,NW,311,1.5,3.0,67,0.00,NA,NA,-99.99,BCS,2013-03-02 20:45:00,
2013-03-02 12:50:00,69.8,59.0,31.04,WNW,289,3.6,4.2,67,0.00,NA,NA,-99.99,BCS,2013-03-02 20:50:00,
2013-03-02 12:55:00,70.1,57.0,31.03,NW,310,2.1,4.5,64,0.00,NA,NA,-99.99,BCS,2013-03-02 20:55:00,
2013-03-02 13:00:00,70.5,57.0,31.03,WNW,299,1.2,3.6,62,0.00,NA,NA,-99.99,BCS,2013-03-02 21:00:00,
2013-03-02 13:05:00,70.4,57.0,31.02,NE,51,3.3,5.1,64,0.00,NA,NA,-99.99,BCS,2013-03-02 21:05:00,
2013-03-02 13:15:00,70.8,59.0,31.02,North,350,1.8,4.5,65,0.00,NA,NA,-99.99,BCS,2013-03-02 21:15:00,
2013-03-02 13:20:00,70.6,59.0,31.03,North,351,2.4,3.9,65,0.00,NA,NA,-99.99,BCS,2013-03-02 21:20:00,
2013-03-02 13:25:00,70.7,58.0,31.02,WNW,296,0.9,4.2,65,0.00,NA,NA,-99.99,BCS,2013-03-02 21:25:00,
2013-03-02 13:30:00,70.0,58.0,31.02,NNE,28,2.7,6.3,66,0.00,NA,NA,-99.99,BCS,2013-03-02 21:30:00,
2013-03-02 13:35:00,70.2,59.0,31.01,North,3,2.7,5.7,67,0.00,NA,NA,-99.99,BCS,2013-03-02 21:35:00,
2013-03-02 13:40:00,70.0,59.0,31.01,North,358,1.8,4.5,67,0.00,NA,NA,-99.99,BCS,2013-03-02 21:40:00,
2013-03-02 13:45:00,70.1,59.0,31.01,NNW,335,1.8,3.9,68,0.00,NA,NA,-99.99,BCS,2013-03-02 21:45:00,
2013-03-02 13:50:00,70.1,59.0,31.00,NNW,335,2.1,4.8,68,0.00,NA,NA,-99.99,BCS,2013-03-02 21:50:00,
2013-03-02 13:55:00,70.0,59.0,31.00,NNE,17,2.1,3.9,68,0.00,NA,NA,-99.99,BCS,2013-03-02 21:55:00,
2013-03-02 14:00:00,70.1,59.0,31.00,North,3,3.3,4.2,67,0.00,NA,NA,-99.99,BCS,2013-03-02 22:00:00,
2013-03-02 14:10:00,69.8,59.0,31.00,NNW,345,0.6,6.0,68,0.00,NA,NA,-99.99,BCS,2013-03-02 22:10:00,
2013-03-02 14:15:00,70.2,59.0,30.99,NNE,26,1.5,3.9,68,0.00,NA,NA,-99.99,BCS,2013-03-02 22:15:00,
2013-03-02 14:20:00,70.7,60.0,30.99,ENE,63,2.4,3.6,66,0.00,NA,NA,-99.99,BCS,2013-03-02 22:20:00,
2013-03-02 14:25:00,71.7,60.0,30.99,ENE,74,1.8,3.6,67,0.00,NA,NA,-99.99,BCS,2013-03-02 22:25:00,
2013-03-02 14:30:00,71.7,59.0,30.99,NNW,343,1.5,3.0,65,0.00,NA,NA,-99.99,BCS,2013-03-02 22:30:00,
2013-03-02 14:35:00,70.8,59.0,30.98,North,8,3.0,3.9,65,0.00,NA,NA,-99.99,BCS,2013-03-02 22:35:00,
2013-03-02 14:45:00,70.5,59.0,30.99,North,351,2.1,3.9,67,0.00,NA,NA,-99.99,BCS,2013-03-02 22:45:00,
2013-03-02 14:50:00,70.7,59.0,30.98,North,1,3.0,4.2,67,0.00,NA,NA,-99.99,BCS,2013-03-02 22:50:00,
2013-03-02 15:00:00,70.4,58.0,30.98,NNE,30,0.6,3.9,67,0.00,NA,NA,-99.99,BCS,2013-03-02 23:00:00,
2013-03-02 15:10:00,69.9,59.0,30.98,North,2,3.0,4.2,67,0.00,NA,NA,-99.99,BCS,2013-03-02 23:10:00,
2013-03-02 15:15:00,69.6,58.0,30.98,NW,313,1.2,6.6,67,0.00,NA,NA,-99.99,BCS,2013-03-02 23:15:00,
2013-03-02 15:20:00,69.1,56.0,30.97,NNW,338,4.5,6.6,64,0.00,NA,NA,-99.99,BCS,2013-03-02 23:20:00,
2013-03-02 15:30:00,68.9,56.0,30.98,NNW,335,1.8,5.1,63,0.00,NA,NA,-99.99,BCS,2013-03-02 23:30:00,
2013-03-02 15:35:00,68.9,56.0,30.97,NNW,340,1.8,6.6,63,0.00,NA,NA,-99.99,BCS,2013-03-02 23:35:00,
2013-03-02 15:40:00,68.8,56.0,30.97,NW,324,3.6,3.6,63,0.00,NA,NA,-99.99,BCS,2013-03-02 23:40:00,
2013-03-02 15:50:00,68.8,56.0,30.98,NW,307,0.3,3.0,64,0.00,NA,NA,-99.99,BCS,2013-03-02 23:50:00,
2013-03-02 15:55:00,68.4,56.0,30.98,NNE,12,4.8,4.8,64,0.00,NA,NA,-99.99,BCS,2013-03-02 23:55:00,
2013-03-02 16:00:00,68.1,55.0,30.98,WNW,300,3.9,7.8,64,0.00,NA,NA,-99.99,BCS,2013-03-03 00:00:00,
2013-03-02 16:05:00,67.9,55.0,30.98,NNW,339,3.0,4.5,64,0.00,NA,NA,-99.99,BCS,2013-03-03 00:05:00,
2013-03-02 16:10:00,67.9,56.0,30.98,NW,307,3.0,4.2,65,0.00,NA,NA,-99.99,BCS,2013-03-03 00:10:00,
2013-03-02 16:20:00,67.2,55.0,30.97,North,11,1.8,7.2,66,0.00,NA,NA,-99.99,BCS,2013-03-03 00:20:00,
2013-03-02 16:25:00,67.0,55.0,30.97,NNE,32,2.1,4.8,67,0.00,NA,NA,-99.99,BCS,2013-03-03 00:25:00,
2013-03-02 16:30:00,66.5,56.0,30.97,North,352,3.3,4.2,68,0.00,NA,NA,-99.99,BCS,2013-03-03 00:30:00,
2013-03-02 16:35:00,66.5,56.0,30.97,NNW,340,2.1,3.6,68,0.00,NA,NA,-99.99,BCS,2013-03-03 00:35:00,
2013-03-02 16:40:00,66.3,55.0,30.97,NNW,346,2.1,3.0,69,0.00,NA,NA,-99.99,BCS,2013-03-03 00:40:00,
2013-03-02 16:45:00,66.0,56.0,30.96,NNW,340,3.0,5.4,70,0.00,NA,NA,-99.99,BCS,2013-03-03 00:45:00,
2013-03-02 16:50:00,65.8,56.0,30.97,NNW,336,2.4,5.4,71,0.00,NA,NA,-99.99,BCS,2013-03-03 00:50:00,
2013-03-02 16:55:00,65.7,57.0,30.97,North,358,2.7,4.2,72,0.00,NA,NA,-99.99,BCS,2013-03-03 00:55:00,
2013-03-02 17:00:00,65.6,57.0,30.97,North,354,0.6,4.5,73,0.00,NA,NA,-99.99,BCS,2013-03-03 01:00:00,
2013-03-02 17:10:00,65.1,57.0,30.97,NNW,341,3.3,3.6,75,0.00,NA,NA,-99.99,BCS,2013-03-03 01:10:00,
2013-03-02 17:15:00,64.9,57.0,30.97,North,352,3.9,3.9,75,0.00,NA,NA,-99.99,BCS,2013-03-03 01:15:00,
2013-03-02 17:20:00,64.9,57.0,30.97,NNW,337,1.2,4.2,76,0.00,NA,NA,-99.99,BCS,2013-03-03 01:20:00,
2013-03-02 17:25:00,64.9,57.0,30.97,NW,309,1.2,2.1,76,0.00,NA,NA,-99.99,BCS,2013-03-03 01:25:00,
2013-03-02 17:30:00,64.8,57.0,30.98,NW,320,1.5,2.1,77,0.00,NA,NA,-99.99,BCS,2013-03-03 01:30:00,
2013-03-02 17:40:00,64.6,58.0,30.98,NW,325,0.6,3.0,77,0.00,NA,NA,-99.99,BCS,2013-03-03 01:40:00,
2013-03-02 17:45:00,64.5,58.0,30.98,NW,325,0.0,1.5,77,0.00,NA,NA,-99.99,BCS,2013-03-03 01:45:00,
2013-03-02 17:55:00,64.2,56.0,30.97,NNW,335,0.0,2.7,77,0.00,NA,NA,-99.99,BCS,2013-03-03 01:55:00,
2013-03-02 18:00:00,64.1,56.0,30.97,NNW,335,0.3,0.9,77,0.00,NA,NA,-99.99,BCS,2013-03-03 02:00:00,
2013-03-02 18:05:00,64.0,57.0,30.97,SSW,196,0.0,2.1,77,0.00,NA,NA,-99.99,BCS,2013-03-03 02:05:00,
2013-03-02 18:15:00,63.6,57.0,30.97,SSW,193,0.0,1.8,79,0.00,NA,NA,-99.99,BCS,2013-03-03 02:15:00,
2013-03-02 18:20:00,63.5,58.0,30.98,South,176,0.9,1.2,80,0.00,NA,NA,-99.99,BCS,2013-03-03 02:20:00,
2013-03-02 18:25:00,63.6,58.0,30.98,SSE,148,1.5,3.6,81,0.00,NA,NA,-99.99,BCS,2013-03-03 02:25:00,
2013-03-02 18:30:00,63.2,57.0,30.98,ENE,57,1.5,3.9,82,0.00,NA,NA,-99.99,BCS,2013-03-03 02:30:00,
2013-03-02 18:40:00,62.6,59.0,30.99,ESE,114,1.8,5.1,86,0.00,NA,NA,-99.99,BCS,2013-03-03 02:40:00,
2013-03-02 18:45:00,62.2,58.0,31.00,SSE,162,1.8,4.8,87,0.00,NA,NA,-99.99,BCS,2013-03-03 02:45:00,
2013-03-02 18:55:00,61.4,58.0,31.00,ESE,104,1.5,2.7,88,0.00,NA,NA,-99.99,BCS,2013-03-03 02:55:00,
2013-03-02 19:00:00,60.9,58.0,31.00,SSE,159,0.9,3.3,90,0.00,NA,NA,-99.99,BCS,2013-03-03 03:00:00,
2013-03-02 19:10:00,60.2,58.0,31.01,SSE,159,0.9,3.6,93,0.00,NA,NA,-99.99,BCS,2013-03-03 03:10:00,
2013-03-02 19:15:00,60.0,58.0,31.01,NNE,19,0.9,2.1,93,0.00,NA,NA,-99.99,BCS,2013-03-03 03:15:00,
2013-03-02 19:20:00,59.5,58.0,31.00,SE,128,1.8,2.7,94,0.00,NA,NA,-99.99,BCS,2013-03-03 03:20:00,
2013-03-02 19:25:00,59.2,57.0,31.00,SSW,212,1.8,3.9,95,0.00,NA,NA,-99.99,BCS,2013-03-03 03:25:00,
2013-03-02 19:30:00,58.9,58.0,31.00,SE,132,2.7,3.3,96,0.00,NA,NA,-99.99,BCS,2013-03-03 03:30:00,
2013-03-02 19:35:00,58.8,58.0,31.00,ESE,119,0.9,3.3,97,0.00,NA,NA,-99.99,BCS,2013-03-03 03:35:00,
2013-03-02 19:45:00,58.4,57.0,31.00,SSE,154,1.5,2.7,98,0.00,NA,NA,-99.99,BCS,2013-03-03 03:45:00,
2013-03-02 19:50:00,58.2,57.0,31.00,NNE,24,0.9,3.6,99,0.00,NA,NA,-99.99,BCS,2013-03-03 03:50:00,
2013-03-02 20:00:00,58.2,58.0,31.01,SSW,205,1.5,2.7,99,0.00,NA,NA,-99.99,BCS,2013-03-03 04:00:00,
2013-03-02 20:05:00,58.3,58.0,31.01,ESE,120,0.3,3.0,99,0.00,NA,NA,-99.99,BCS,2013-03-03 04:05:00,
2013-03-02 20:10:00,58.0,58.0,31.00,ESE,104,1.2,1.8,99,0.00,NA,NA,-99.99,BCS,2013-03-03 04:10:00,
2013-03-02 20:15:00,57.9,58.0,31.00,ENE,59,1.8,1.8,99,0.00,NA,NA,-99.99,BCS,2013-03-03 04:15:00,
2013-03-02 20:20:00,57.8,58.0,30.99,SE,124,0.6,3.0,100,0.00,NA,NA,-99.99,BCS,2013-03-03 04:20:00,
2013-03-02 20:25:00,57.7,58.0,30.99,SE,138,1.5,1.8,100,0.00,NA,NA,-99.99,BCS,2013-03-03 04:25:00,
2013-03-02 20:30:00,57.8,58.0,30.99,South,182,1.5,3.0,100,0.00,NA,NA,-99.99,BCS,2013-03-03 04:30:00,
2013-03-02 20:35:00,57.9,58.0,30.99,South,177,2.7,2.7,100,0.00,NA,NA,-99.99,BCS,2013-03-03 04:35:00,
2013-03-02 20:40:00,58.1,58.0,30.99,South,171,2.1,3.6,100,0.00,NA,NA,-99.99,BCS,2013-03-03 04:40:00,
2013-03-02 20:45:00,58.2,58.0,30.98,South,174,0.9,3.0,100,0.00,NA,NA,-99.99,BCS,2013-03-03 04:45:00,
2013-03-02 20:50:00,58.1,58.0,30.99,South,173,1.2,2.4,100,0.00,NA,NA,-99.99,BCS,2013-03-03 04:50:00,
2013-03-02 20:55:00,58.0,58.0,30.99,SSE,168,1.2,2.7,100,0.00,NA,NA,-99.99,BCS,2013-03-03 04:55:00,
2013-03-02 21:05:00,57.8,58.0,30.99,South,170,0.3,1.2,100,0.00,NA,NA,-99.99,BCS,2013-03-03 05:05:00,
2013-03-02 21:10:00,57.6,58.0,30.99,SSE,151,1.2,2.1,100,0.00,NA,NA,-99.99,BCS,2013-03-03 05:10:00,
2013-03-02 21:15:00,57.5,58.0,30.99,ENE,64,1.5,2.1,100,0.00,NA,NA,-99.99,BCS,2013-03-03 05:15:00,
2013-03-02 21:20:00,57.5,57.0,31.00,NNE,28,0.0,2.1,100,0.00,NA,NA,-99.99,BCS,2013-03-03 05:20:00,
2013-03-02 21:25:00,57.4,57.0,31.00,NW,304,1.8,2.1,100,0.00,NA,NA,-99.99,BCS,2013-03-03 05:25:00,
2013-03-02 21:30:00,57.3,57.0,31.00,NW,321,3.0,3.3,100,0.00,NA,NA,-99.99,BCS,2013-03-03 05:30:00,
2013-03-02 21:35:00,57.2,57.0,31.00,West,280,2.1,3.9,100,0.00,NA,NA,-99.99,BCS,2013-03-03 05:35:00,
2013-03-02 21:40:00,57.2,57.0,31.00,WNW,299,0.9,3.6,100,0.00,NA,NA,-99.99,BCS,2013-03-03 05:40:00,
2013-03-02 21:45:00,57.2,57.0,31.00,West,280,0.6,3.0,100,0.00,NA,NA,-99.99,BCS,2013-03-03 05:45:00,
2013-03-02 21:50:00,57.0,57.0,31.00,SW,227,0.6,3.3,100,0.00,NA,NA,-99.99,BCS,2013-03-03 05:50:00,
2013-03-02 21:55:00,57.0,57.0,31.00,West,279,2.4,3.3,100,0.00,NA,NA,-99.99,BCS,2013-03-03 05:55:00,
2013-03-02 22:00:00,57.0,57.0,31.01,WSW,251,0.6,2.7,100,0.00,NA,NA,-99.99,BCS,2013-03-03 06:00:00,
2013-03-02 22:05:00,57.0,57.0,31.00,West,281,1.2,1.5,100,0.00,NA,NA,-99.99,BCS,2013-03-03 06:05:00,
2013-03-02 22:10:00,56.9,57.0,31.00,WNW,293,3.6,3.6,100,0.00,NA,NA,-99.99,BCS,2013-03-03 06:10:00,
2013-03-02 22:15:00,56.9,57.0,31.01,WNW,303,3.3,3.6,100,0.00,NA,NA,-99.99,BCS,2013-03-03 06:15:00,
2013-03-02 22:20:00,56.9,57.0,31.01,NW,317,1.2,3.9,100,0.00,NA,NA,-99.99,BCS,2013-03-03 06:20:00,
2013-03-02 22:25:00,57.0,57.0,31.01,WNW,292,0.0,2.4,100,0.00,NA,NA,-99.99,BCS,2013-03-03 06:25:00,
2013-03-02 22:30:00,57.1,57.0,31.00,WNW,292,0.0,0.9,100,0.00,NA,NA,-99.99,BCS,2013-03-03 06:30:00,
2013-03-02 22:40:00,57.5,57.0,31.00,South,178,3.0,3.0,100,0.00,NA,NA,-99.99,BCS,2013-03-03 06:40:00,
2013-03-02 22:45:00,57.1,57.0,31.00,South,175,0.9,3.0,100,0.00,NA,NA,-99.99,BCS,2013-03-03 06:45:00,
2013-03-02 22:50:00,57.2,57.0,31.00,South,177,0.0,1.8,100,0.00,NA,NA,-99.99,BCS,2013-03-03 06:50:00,
2013-03-02 22:55:00,57.0,57.0,31.00,SSE,165,1.2,1.8,100,0.00,NA,NA,-99.99,BCS,2013-03-03 06:55:00,
2013-03-02 23:00:00,56.9,57.0,31.00,East,83,1.5,2.1,100,0.00,NA,NA,-99.99,BCS,2013-03-03 07:00:00,
2013-03-02 23:10:00,56.8,57.0,30.99,East,89,0.0,1.5,100,0.00,NA,NA,-99.99,BCS,2013-03-03 07:10:00,
2013-03-02 23:15:00,56.7,57.0,31.00,East,89,0.0,0.0,100,0.00,NA,NA,-99.99,BCS,2013-03-03 07:15:00,
2013-03-02 23:20:00,56.7,57.0,31.00,East,89,0.0,0.0,100,0.00,NA,NA,-99.99,BCS,2013-03-03 07:20:00,
2013-03-02 23:25:00,56.6,57.0,31.00,East,90,0.0,0.9,100,0.00,NA,NA,-99.99,BCS,2013-03-03 07:25:00,
2013-03-02 23:30:00,56.5,57.0,31.00,East,90,0.0,0.0,100,0.00,NA,NA,-99.99,BCS,2013-03-03 07:30:00,
2013-03-02 23:35:00,56.4,56.0,31.00,East,90,0.0,0.0,100,0.00,NA,NA,-99.99,BCS,2013-03-03 07:35:00,
2013-03-02 23:40:00,56.3,56.0,31.01,East,90,0.0,0.0,100,0.00,NA,NA,-99.99,BCS,2013-03-03 07:40:00,
2013-03-02 23:45:00,56.2,56.0,31.00,East,91,0.3,0.6,100,0.00,NA,NA,-99.99,BCS,2013-03-03 07:45:00,
2013-03-02 23:50:00,56.1,56.0,31.00,East,95,0.0,0.6,100,0.00,NA,NA,-99.99,BCS,2013-03-03 07:50:00,
2013-03-02 23:55:00,56.1,56.0,31.00,ESE,108,0.0,0.0,100,0.00,NA,NA,-99.99,BCS,2013-03-03 07:55:00,